User: anonymous   Login
Location: Chenango Forks
(42.2242°N, 75.8278°W)
Time: 12:55:41
(UTC-04:00)
Language:

Okean 3 Rocket - Orbit

View from above orbital plane
View from above orbital plane
View from above satellite
View from above satellite

Ground track
Ground track

The orbit data is extracted from the following two-line orbital elements,

1 21398U 91039B   16211.97027161 +.00000091 +00000-0 +89437-5 0  9995
2 21398 082.5240 166.1206 0022080 155.0373 268.2148 14.79616196335220
Epoch (UTC): 29 July 2016 23:17:11
Eccentricity: 0.0022080
inclination: 82.5240°
perigee height: 615 km
apogee height: 646 km
right ascension of ascending node: 166.1206°
argument of perigee: 155.0373°
revolutions per day: 14.79616196
mean anomaly at epoch: 268.2148°
orbit number at epoch: 33522

The dashed part of the orbit path shows where the satellite is in the earth's shadow,  

DLR